Location: Grust
(42.8833°N, 0.0333°W)
Time: 19:51:08
(UTC+00:00)

SeaSat 1 - Pass Details

Date: 25 October 2020
Orbit: 744 x 747 km, 108.0° (Epoch: 23 November)

Event Time Altitude Azimuth Distance (km) Brightness Sun altitude
Exits shadow 17:32:12 - 78° (ENE) 2,475 4.4 -6.3°
Reaches altitude 10° 17:33:12 10° 68° (ENE) 2,267 4.3 -6.5°
Maximum altitude 17:35:21 13° 42° (NE) 2,073 4.3 -6.8°
Drops below altitude 10° 17:37:30 10° 16° (NNE) 2,272 4.7 -7.2°
Sets 17:41:01 0° 350° (N) 3,201 5.7 -7.9°
